Regional Weather Roundup
Issued by NWS

Home | Current Version | Previous Version | Text Only | Print | Product List | Glossary On
Versions: 1 2 3 4 5 6 7 8 9 10 11 12 13 14 15 16 17 18 19 20 21 22 23 24 25 26 27 28 29 30 31 32 33 34 35 36 37 38 39 40 41 42 43 44 45 46 47 48 49 50
000
ASUS43 KDTX 290710
RWRMI
MICHIGAN HOURLY REGIONAL WEATHER ROUNDUP
NATIONAL WEATHER SERVICE DETROIT/PONTIAC MI
300 AM EDT SUN MAR 29 2015

NOTE: "FAIR" INDICATES FEW OR NO CLOUDS BELOW 12,000 FEET WITH NO
SIGNIFICANT WEATHER AND/OR OBSTRUCTION TO VISIBILITY.

MIZ047>049-052>055-059>063-066>070-074>076-081>083-290800-
SOUTHEAST LOWER MICHIGAN

CITY           SKY/WX    TMP DP  RH WIND       PRES   REMARKS
ADRIAN         CLEAR     23  12  62 W3        30.29F
ALMA           CLEAR     23  14  66 S6        30.23F WCI  16
ANN ARBOR      CLEAR     15  12  88 SW3       30.28S
BAD AXE        CLEAR     25  12  58 SW6       30.23F WCI  18
CARO           CLEAR     19  11  71 CALM      30.25S
DETROIT CITY   CLEAR     24  16  71 S3        30.28F
DETROIT        CLEAR     21  16  81 S3        30.29F
FLINT          CLEAR     25  10  53 S6        30.27S WCI  18
GROSSE ILE     CLEAR     25  19  80 SW5       30.28S WCI  19
HILLSDALE      CLEAR     18  13  80 CALM      30.26S
HOWELL         CLEAR     22  11  63 SW3       30.26S

CITY           SKY/WX    TMP DP  RH WIND       PRES   REMARKS
JACKSON        CLEAR     18  11  74 SW3       30.27S
LAMBERTVILLE   CLEAR     28  14  54 SW5       30.31S WCI  23
LANSING        CLEAR     21  12  68 S7        30.26F WCI  12
LAPEER         FAIR      22  10  58 W3        30.26F
MASON          CLEAR     21  17  83 CALM      30.26F
MONROE         CLEAR     23  16  74 SW3       30.28S
MT. CLEMENS    CLEAR     22  16  78 SW6       30.25S WCI  14
PONTIAC        CLEAR     21  13  71 W3        30.26R
PORT HOPE        N/A     27  13  55 W7        30.20F WCI  19
PORT HURON     CLEAR     19  18  93 CALM      30.27S
TRI CITIES     CLEAR     24  14  65 S7        30.24F WCI  16
TROY           CLEAR     26  19  77 CALM      30.30R
SAGINAW HB     CLEAR     25  16  68 S7        30.25F WCI  17
$$
MIZ043>046-050>051-056>058-064>065-071>073-077>080-290800-
SOUTHWEST LOWER MICHIGAN

CITY           SKY/WX    TMP DP  RH WIND       PRES   REMARKS
BATTLE CREEK   FAIR      22  12  65 S7        30.25F WCI  13
BENTON HARBOR  CLEAR     20  13  74 S5        30.27F WCI  13
BIG RAPIDS     CLEAR     21  10  62 CALM      30.19F
COLDWATER      CLEAR     18  15  85 SE3       30.28S
FREMONT        FAIR      20  10  65 S3        30.22F
HOLLAND        CLEAR     20  10  65 S6        30.26F WCI  12
GRAND RAPIDS   CLEAR     18   9  68 S8        30.24F WCI   8
IONIA          FAIR      23  12  63 S8        30.23F WCI  14
KALAMAZOO      CLEAR     23  13  65 S6        30.26F WCI  16
LUDINGTON      CLEAR     25  17  72 S5        30.20F WCI  19
MARSHALL       CLEAR     18  13  83 CALM      30.26F
MOUNT PLEASANT CLEAR     23   9  55 S3        30.21F
MUSKEGON       CLEAR     19  12  74 SE5       30.24F WCI  12
SOUTH HAVEN    CLEAR     22  12  65 S3        30.27S
$$
MIZ016>042-290800-
NORTHERN LOWER MICHIGAN

CITY           SKY/WX    TMP DP  RH WIND       PRES   REMARKS
ALPENA         CLEAR     18  11  74 S5        30.17F WCI  11
BEAVER ISLAND  CLEAR     26  20  76 SW10G17   30.11F WCI  16
BELLAIRE       CLEAR     23   5  45 SW3       30.17F
CADILLAC       CLEAR     19   5  54 S5        30.15S WCI  12
CHARLEVOIX     CLEAR     26   6  44 S9        30.16F WCI  16
FRANKFORT      CLEAR     29  17  59 S7        30.17F WCI  22
GAYLORD        CLEAR     21   4  47 SW8       30.12F WCI  11
GRAYLING       CLEAR     23   3  42 SW5       30.15F WCI  17
HARBOR SPRINGS CLEAR     22   6  51 CALM      30.14S
HOUGHTON LAKE  CLEAR     21   8  57 SW8       30.17F WCI  11
MANISTEE       CLEAR     21  10  63 CALM      30.19F
OSCODA         CLEAR     18  12  77 CALM      30.20F
PELLSTON       PTCLDY    25   7  46 SW5       30.13F WCI  19
ROGERS CITY    CLEAR     21  13  71 S6        30.15F WCI  13
TRAVERSE CITY  CLEAR     26   7  44 VRB6      30.15F WCI  19
$$
MIZ007>008-015-290800-
EASTERN UPPER MICHIGAN

CITY           SKY/WX    TMP DP  RH WIND       PRES   REMARKS
KINROSS        PTCLDY    19   9  63 S5        30.10F WCI  13
MACKINAC ISLAN CLEAR     23   7  50 S10       30.10F WCI  13
NEWBERRY       CLEAR     22  21  93 S13G18    30.05F WCI  10
S. S. MARIE    PTCLDY    15  11  83 E5        30.09F WCI   8
MUNISING         N/A     28  20  71 S9        30.01F WCI  19
$$
MIZ004>006-011>014-085-290800-
CENTRAL UPPER MICHIGAN

CITY           SKY/WX    TMP DP  RH WIND       PRES   REMARKS
MANISTIQUE     CLEAR     30  27  88 SW14G24   30.06F WCI  20
ESCANABA       CLEAR     28  21  74 SW12      30.06F WCI  18
MENOMINEE      CLEAR     28  18  64 SW12G17   30.08F WCI  18
SAWYER-GWINN   PTCLDY    26  16  65 S14       29.97F WCI  14
$$
MIZ001>003-009>011-084-290800-
WESTERN UPPER MICHIGAN

CITY           SKY/WX    TMP DP  RH WIND       PRES   REMARKS
IRON MOUNTAIN  PTCLDY    29  13  51 S10       29.99F WCI  20
HOUGHTON       PTCLDY    30  11  45 SW9       29.87F WCI  22
COPPER HARBOR    N/A     30  15  53 SW9G18    29.88F WCI  22
IRONWOOD       PTCLDY    34  14  44 S17G25    29.83F WCI  23
$$

ABBREVIATIONS USED IN REMARKS
   TC - TEMPERATURE IN CELSIUS
  WCI - WIND CHILL INDEX
   HX - HEAT INDEX
  VSB - VISIBILITY



USA.gov is the U.S. government's official web portal to all federal, state and local government web resources and services.